This is the latest recevied weather packets stored in our database for station/object N7NMS-13. If no packets are shown the sender has not sent any weather packets the latest 10 day(s).
| Time | Temp. | Humidity | Pressure | Rain* | Wind** | Luminosity | Snow |
|---|---|---|---|---|---|---|---|
| 1777837303 | 14.44° C | 41% | - | 0 mm | - | - | - |
| 1777836703 | 13.89° C | 40% | - | 0 mm | - | - | - |
| 1777836103 | 13.89° C | 39% | - | 0 mm | - | - | - |
| 1777835473 | 13.89° C | 42% | - | 0 mm | - | - | - |
| 1777834873 | 13.89° C | 40% | - | 0 mm | - | - | - |
| 1777834273 | 13.33° C | 41% | - | 0 mm | - | - | - |
| 1777833643 | 13.33° C | 43% | - | 0 mm | - | - | - |
| 1777833043 | 12.22° C | 43% | - | 0 mm | - | - | - |
| 1777832443 | 12.78° C | 42% | - | 0 mm | - | - | - |
| 1777831843 | 12.22° C | 41% | - | 0 mm | - | - | - |
| 1777831213 | 13.33° C | 44% | - | 0 mm | - | - | - |
| 1777830613 | 12.22° C | 42% | - | 0 mm | - | - | - |
| 1777829983 | 12.78° C | 46% | - | 0 mm | - | - | - |
| 1777829383 | 12.22° C | 47% | - | 0 mm | - | - | - |
| 1777828783 | 12.22° C | 43% | - | 0 mm | - | - | - |
| 1777828183 | 11.67° C | 45% | - | 0 mm | - | - | - |
| 1777827583 | 11.67° C | 45% | - | 0 mm | - | - | - |
| 1777826983 | 11.67° C | 44% | - | 0 mm | - | - | - |
| 1777826383 | 11.11° C | 45% | - | 0 mm | - | - | - |
| 1777825753 | 11.11° C | 45% | - | 0 mm | - | - | - |
| 1777825123 | 10.56° C | 46% | - | 0 mm | - | - | - |
| 1777824523 | 10.56° C | 46% | - | 0 mm | - | - | - |
| 1777823923 | 10° C | 48% | - | 0 mm | - | - | - |
| 1777823323 | 10° C | 49% | - | 0 mm | - | - | - |
| 1777822723 | 9.44° C | 47% | - | 0 mm | - | - | - |
* Rain latest hour (hover to see other rain measurements)
** Current wind speed in m/s (hover to see current wind gust speed)